Location: Libas
(9.8833°N, 125.9833°E)
Time: 21:15:35
(UTC+00:00)

Stardust Del rocket - Pass Details

Date: 27 October 2020
Orbit: 286 x 4194 km, 22.5° (Epoch: 25 November)

Event Time Altitude Azimuth Distance (km) Brightness Sun altitude
Exits shadow 20:16:40 20° 3° (N) 834 4.2 -17.5°
Drops below altitude 10° 20:18:41 10° 43° (NE) 1,455 5.9 -17.0°
Sets 20:21:42 0° 59° (ENE) 2,727 7.6 -16.3°
